SCP
0 -0 0 0 0 0 0 0 0 0 0 0 0 0 0 0 0 0 0 0 0 0
-0 -0 0 0 0 0 0 0 0 0 0 0 0 0 0 0 0 0 0 0 0 0
0 0 0 0 0 0 0 0 0 0 0 0 0 0 0 0 0 0 0 0 0 0
0 0 0 0 0 0 0 0 0 0 0 0 0 0 0 0 0 0 0 0 0 0
0 0 0 0 0 0 0 0 0 0 0 0 0 0 0 0 0 0 0 0 0 0
0 0 0 0 0 0 0 0 0 0 0 0 0 0 0 0 0 0 0 0 0 0
0 0 0 0 0 0 0 0 0 0 0 0 0 0 0 0 0 0 0 0 0 0
0 0 0 0 0 0 0 0 0 0 0 0 0 0 0 0 0 0 0 0 0 0
0 0 0 0 0 0 0 0 0 0 0 0 0 0 0 0 0 0 0 0 0 0
0 0 0 0 0 0 0 0 0 0 0 0 0 0 0 0 0 0 0 0 0 0
0 0 0 0 0 0 0 0 0 0 0 0 0 0 0 0 0 0 0 0 0 0
0 0 0 0 0 0 0 0 0 0 0 0 0 0 0 0 0 0 0 0 0 0
0 0 0 0 0 0 0 0 0 0 0 0 0 0 0 0 0 0 0 0 0 0
0 0 0 0 0 0 0 0 0 0 0 0 0 0 0 0 0 0 0 0 0 0
Wind_Speed_500mb
97 95 90 86 81 79 77 75 76 76 71 73 72 71 68 62 59 57 56 60 56 64
93 91 90 86 80 77 76 77 77 72 70 74 73 73 70 62 60 62 54 58 63 60
90 88 86 83 81 80 80 85 87 82 78 79 78 76 73 75 77 64 60 57 53 47
84 84 83 84 88 87 87 93 84 77 77 73 68 84 75 77 82 63 61 53 52 50
40 64 71 91 90 79 88 83 62 72 83 82 88 88 76 73 68 64 66 58 56 46
87 85 85 91 91 78 79 70 74 85 81 83 79 76 90 83 71 60 56 53 48 43
84 89 90 87 82 82 60 71 81 90 77 77 81 74 68 69 59 62 55 46 44 43
83 88 82 76 73 76 86 83 78 81 72 68 63 71 57 52 58 58 54 46 44 40
72 73 68 63 62 67 76 84 78 70 68 59 48 44 53 59 53 44 42 43 45 43
81 64 54 46 41 41 54 54 51 48 43 48 52 53 46 44 42 43 44 42 40 39
66 46 37 36 38 40 41 42 45 48 49 44 39 39 39 39 40 40 39 38 37 36
36 38 40 45 45 44 44 46 43 40 39 36 35 36 39 38 35 34 34 33 32 32
33 42 43 42 40 39 37 40 40 38 34 35 39 41 36 32 31 33 34 33 35 39
36 36 35 37 38 40 46 44 40 40 41 39 35 35 35 35 32 31 33 35 38 39
Wind_Direction_500mb
210 215 219 223 227 234 240 245 249 252 253 254 256 258 258 261 263 267 258 259 266 268
216 220 225 229 235 241 248 253 255 258 260 261 260 261 263 267 263 265 257 256 261 259
225 231 236 241 245 247 252 256 258 260 260 264 263 263 260 264 260 251 252 253 258 262
236 241 243 246 250 252 257 263 267 269 264 260 264 259 262 264 261 252 252 254 254 255
240 244 250 249 248 254 261 255 264 270 269 250 252 256 256 270 249 251 248 255 252 244
232 237 239 244 248 242 259 246 248 244 248 254 254 253 259 259 255 245 257 247 245 245
241 246 248 248 250 245 250 239 245 245 246 249 260 248 257 245 239 246 243 238 236 231
241 238 244 246 245 250 244 245 247 239 242 259 253 244 238 237 242 239 235 222 225 226
238 236 244 240 246 249 249 250 236 243 246 246 223 237 240 236 233 225 220 221 222 231
234 238 239 244 248 234 232 232 234 229 226 231 238 229 230 222 216 216 218 221 228 239
233 235 234 235 220 218 218 224 223 229 224 223 222 223 222 216 216 215 217 226 240 247
206 217 235 223 217 221 220 212 213 212 212 212 206 214 207 206 214 225 236 243 247 257
230 218 215 216 214 212 214 206 205 199 203 205 206 196 207 229 231 237 242 249 260 269
230 218 215 218 216 212 205 199 198 201 197 198 207 220 230 239 234 241 252 262 271 273
Wind_Speed_850mb
97 95 90 86 81 79 77 75 76 76 71 73 72 71 68 62 59 57 56 60 56 64
93 91 90 86 80 77 76 77 77 72 70 74 73 73 70 62 60 62 54 58 63 60
90 88 86 83 81 80 80 85 87 82 78 79 78 76 73 75 77 64 60 57 53 47
84 84 83 84 88 87 87 93 84 77 77 73 68 84 75 77 82 63 61 53 52 50
40 64 71 91 90 79 88 83 62 72 83 82 88 88 76 73 68 64 66 58 56 46
87 85 85 91 91 78 79 70 74 85 81 83 79 76 90 83 71 60 56 53 48 43
84 89 90 87 82 82 60 71 81 90 77 77 81 74 68 69 59 62 55 46 44 43
83 88 82 76 73 76 86 83 78 81 72 68 63 71 57 52 58 58 54 46 44 40
72 73 68 63 62 67 76 84 78 70 68 59 48 44 53 59 53 44 42 43 45 43
81 64 54 46 41 41 54 54 51 48 43 48 52 53 46 44 42 43 44 42 40 39
66 46 37 36 38 40 41 42 45 48 49 44 39 39 39 39 40 40 39 38 37 36
36 38 40 45 45 44 44 46 43 40 39 36 35 36 39 38 35 34 34 33 32 32
33 42 43 42 40 39 37 40 40 38 34 35 39 41 36 32 31 33 34 33 35 39
36 36 35 37 38 40 46 44 40 40 41 39 35 35 35 35 32 31 33 35 38 39
Wind_Direction_850mb
210 215 219 223 227 234 240 245 249 252 253 254 256 258 258 261 263 267 258 259 266 268
216 220 225 229 235 241 248 253 255 258 260 261 260 261 263 267 263 265 257 256 261 259
225 231 236 241 245 247 252 256 258 260 260 264 263 263 260 264 260 251 252 253 258 262
236 241 243 246 250 252 257 263 267 269 264 260 264 259 262 264 261 252 252 254 254 255
240 244 250 249 248 254 261 255 264 270 269 250 252 256 256 270 249 251 248 255 252 244
232 237 239 244 248 242 259 246 248 244 248 254 254 253 259 259 255 245 257 247 245 245
241 246 248 248 250 245 250 239 245 245 246 249 260 248 257 245 239 246 243 238 236 231
241 238 244 246 245 250 244 245 247 239 242 259 253 244 238 237 242 239 235 222 225 226
238 236 244 240 246 249 249 250 236 243 246 246 223 237 240 236 233 225 220 221 222 231
234 238 239 244 248 234 232 232 234 229 226 231 238 229 230 222 216 216 218 221 228 239
233 235 234 235 220 218 218 224 223 229 224 223 222 223 222 216 216 215 217 226 240 247
206 217 235 223 217 221 220 212 213 212 212 212 206 214 207 206 214 225 236 243 247 257
230 218 215 216 214 212 214 206 205 199 203 205 206 196 207 229 231 237 242 249 260 269
230 218 215 218 216 212 205 199 198 201 197 198 207 220 230 239 234 241 252 262 271 273